Location: ??
(34.9170°N, 135.5016°E)
Time: 11:59:43
(UTC+00:00)

Explorer 7 - Pass Details

Date: 06 March 2021
Orbit: 484 x 677 km, 50.3° (Epoch: 18 April)

Event Time Altitude Azimuth Distance (km) Brightness Sun altitude
Rises 08:36:33 0° 318° (NW) 2,789 10.9 3.5°
Reaches altitude 10° 08:39:34 10° 339° (NNW) 1,844 9.7 2.9°
Maximum altitude 08:42:19 17° 21° (NNE) 1,421 8.7 2.3°
Drops below altitude 10° 08:44:58 10° 62° (ENE) 1,767 8.8 1.8°
Sets 08:47:46 0° 84° (E) 2,618 9.5 1.2°
